Location: Clanezzo
(45.7500°N, 9.6000°E)
Time: 02:18:12
(UTC+00:00)

ERBS - Pass Details

Date: 12 May 2021
Orbit: 399 x 417 km, 57.0° (Epoch: 18 June)

Event Time Altitude Azimuth Distance (km) Brightness Sun altitude
Rises 22:23:32 0° 311° (NW) 2,357 6.9 -24.7°
Reaches altitude 10° 22:25:37 10° 313° (NW) 1,494 5.8 -24.8°
Enters shadow 22:27:28 30° 319° (NW) 774 4.1 -24.9°
